Waseca, MN

1:04 AM CDT on April 23, 2017 (GMT -0500)
Waseca Municipal

Weather History for KACQ - December, 2013

Change the Weather History Date:

Friday, December 13, 2013

  Actual Average Record
Temperature  
Mean Temperature 16 °F -  
Max Temperature 21 °F 27 °F 54 °F (1968)
Min Temperature 12 °F 9 °F -28 °F (1917)
Degree Days  
Heating Degree Days 48    
Moisture  
Dew Point 13 °F    
Average Humidity 80    
Maximum Humidity 93    
Minimum Humidity 73    
Precipitation  
Precipitation 0.00 in - - ()
Sea Level Pressure  
Sea Level Pressure 30.13 in    
Wind  
Wind Speed 8 mph (NE)    
Max Wind Speed 16 mph    
Max Gust Speed 22 mph    
Visibility 10 miles    
Events      
Averages and records for this station are not official NWS values.
T = Trace of Precipitation, MM = Missing Value Source: NWS Daily Summary

Daily Weather History Graph

Daily Weather History Graph

Search for Another Location

Airport or City:

Trip Planner

Search our weather history database for the weather conditions in past years. The results will help you decide how hot, cold, wet, or windy it might be!

Date:

Astronomy

Dec. 13, 2013 Rise Set
Actual Time 7:40 AM CST 4:36 PM CST
Civil Twilight 7:07 AM CST 5:09 PM CST
Nautical Twilight 6:31 AM CST 5:45 PM CST
Astronomical Twilight 5:56 AM CST 6:20 PM CST
Moon 2:24 PM CST (12/13) 3:58 AM CST (12/13)
Length of Visible Light 10h 01m
Length of Day
8h 55m
Waxing Gibbous, 88% of the Moon is Illuminated
Dec 13
Waxing Gibbous
Dec 17
Full
Dec 25
Last Quarter
Jan 1
New
Jan 7
First Quarter

Hourly Weather History & Observations

Time (CST) Temp. Windchill Dew Point Humidity Pressure Visibility Wind Dir Wind Speed Gust Speed Precip Events Conditions
12:14 AM 19.4 °F - 15.8 °F 86% 30.11 in 10.0 mi Calm Calm - N/A   Clear
12:34 AM 15.8 °F - 12.2 °F 86% 30.11 in 10.0 mi Calm Calm - N/A   Clear
12:54 AM 15.8 °F - 12.2 °F 86% 30.10 in 10.0 mi Calm Calm - N/A   Clear
1:14 AM 14.0 °F 5.1 °F 10.4 °F 86% 30.09 in 10.0 mi NE 5.8 mph - N/A   Clear
1:34 AM 14.0 °F 3.9 °F 12.2 °F 93% 30.08 in 10.0 mi NE 6.9 mph - N/A   Clear
1:54 AM 14.0 °F 6.5 °F 12.2 °F 93% 30.09 in 10.0 mi ENE 4.6 mph - N/A   Clear
2:14 AM 14.0 °F 6.5 °F 12.2 °F 93% 30.09 in 10.0 mi ENE 4.6 mph - N/A   Clear
2:34 AM 14.0 °F 3.9 °F 12.2 °F 93% 30.08 in 10.0 mi ENE 6.9 mph - N/A   Clear
2:54 AM 14.0 °F 3.9 °F 12.2 °F 93% 30.09 in 10.0 mi ENE 6.9 mph - N/A   Clear
3:14 AM 14.0 °F 3.9 °F 12.2 °F 93% 30.08 in 10.0 mi NE 6.9 mph - N/A   Mostly Cloudy
3:34 AM 14.0 °F 8.2 °F 12.2 °F 93% 30.09 in 10.0 mi East 3.5 mph - N/A   Scattered Clouds
3:54 AM 12.2 °F 2.9 °F 8.6 °F 85% 30.08 in 10.0 mi NE 5.8 mph - N/A   Clear
4:14 AM 14.0 °F 3.9 °F 12.2 °F 93% 30.07 in 10.0 mi NE 6.9 mph - N/A   Clear
4:34 AM 14.0 °F 5.1 °F 12.2 °F 93% 30.07 in 10.0 mi ENE 5.8 mph - N/A   Clear
4:54 AM 17.6 °F 8.2 °F 14.0 °F 86% 30.08 in 10.0 mi ENE 6.9 mph - N/A   Clear
5:14 AM 17.6 °F 7.3 °F 14.0 °F 86% 30.09 in 10.0 mi ENE 8.1 mph - N/A   Clear
5:34 AM 17.6 °F 7.3 °F 14.0 °F 86% 30.09 in 10.0 mi ENE 8.1 mph - N/A   Clear
5:54 AM 19.4 °F 10.4 °F 15.8 °F 86% 30.09 in 10.0 mi ENE 6.9 mph - N/A   Clear
6:15 AM 19.4 °F 8.6 °F 15.8 °F 86% 30.09 in 10.0 mi ENE 9.2 mph - N/A   Clear
6:34 AM 19.4 °F 7.2 °F 15.8 °F 86% 30.09 in 10.0 mi ENE 11.5 mph - N/A   Clear
6:54 AM 19.4 °F 7.9 °F 15.8 °F 86% 30.09 in 10.0 mi NE 10.4 mph - N/A   Clear
7:14 AM 19.4 °F 8.6 °F 14.0 °F 80% 30.11 in 10.0 mi NE 9.2 mph - N/A   Clear
7:34 AM 19.4 °F 7.2 °F 14.0 °F 80% 30.10 in 10.0 mi NE 11.5 mph - N/A   Clear
7:53 AM 19.4 °F 7.9 °F 14.0 °F 80% 30.12 in 10.0 mi ENE 10.4 mph - N/A   Clear
8:15 AM 19.4 °F 6.6 °F 14.0 °F 80% 30.11 in 10.0 mi NE 12.7 mph 18.4 mph N/A   Clear
8:34 AM 19.4 °F 7.2 °F 14.0 °F 80% 30.12 in 10.0 mi ENE 11.5 mph 16.1 mph N/A   Clear
8:54 AM 19.4 °F 7.2 °F 14.0 °F 80% 30.12 in 10.0 mi NE 11.5 mph - N/A   Clear
9:15 AM 19.4 °F 6.6 °F 14.0 °F 80% 30.12 in 10.0 mi ENE 12.7 mph - N/A   Clear
9:34 AM 19.4 °F 6.0 °F 14.0 °F 80% 30.12 in 10.0 mi ENE 13.8 mph - N/A   Clear
9:54 AM 19.4 °F 5.5 °F 14.0 °F 80% 30.13 in 10.0 mi ENE 15.0 mph 18.4 mph N/A   Clear
10:14 AM 19.4 °F 6.0 °F 14.0 °F 80% 30.13 in 10.0 mi ENE 13.8 mph 17.3 mph N/A   Clear
10:35 AM 19.4 °F 6.0 °F 14.0 °F 80% 30.13 in 10.0 mi ENE 13.8 mph - N/A   Clear
10:54 AM 21.2 °F 7.3 °F 14.0 °F 74% 30.13 in 10.0 mi ENE 16.1 mph 19.6 mph N/A   Clear
11:14 AM 21.2 °F 7.8 °F 14.0 °F 74% 30.12 in 10.0 mi ENE 15.0 mph - N/A   Clear
11:35 AM 21.2 °F 7.8 °F 14.0 °F 74% 30.11 in 10.0 mi East 15.0 mph 20.7 mph N/A   Clear
11:55 AM 21.2 °F 7.3 °F 14.0 °F 74% 30.11 in 10.0 mi East 16.1 mph 19.6 mph N/A   Clear
12:14 PM 21.2 °F 8.3 °F 14.0 °F 74% 30.11 in 10.0 mi ENE 13.8 mph - N/A   Clear
12:34 PM 21.2 °F 8.9 °F 14.0 °F 74% 30.11 in 10.0 mi NE 12.7 mph - N/A   Clear
12:54 PM 21.2 °F 8.3 °F 14.0 °F 74% 30.11 in 10.0 mi ENE 13.8 mph 18.4 mph N/A   Clear
1:14 PM 21.2 °F 7.8 °F 14.0 °F 74% 30.10 in 10.0 mi NE 15.0 mph 18.4 mph N/A   Clear
1:34 PM 21.2 °F 7.3 °F 14.0 °F 74% 30.10 in 10.0 mi NE 16.1 mph - N/A   Clear
1:54 PM 21.2 °F 8.9 °F 14.0 °F 74% 30.11 in 10.0 mi NE 12.7 mph 20.7 mph N/A   Clear
2:15 PM 21.2 °F 7.8 °F 14.0 °F 74% 30.11 in 10.0 mi NE 15.0 mph 21.9 mph N/A   Clear
2:34 PM 21.2 °F 8.9 °F 14.0 °F 74% 30.11 in 10.0 mi NE 12.7 mph - N/A   Clear
2:54 PM 19.4 °F 7.2 °F 14.0 °F 80% 30.11 in 10.0 mi NE 11.5 mph 17.3 mph N/A   Clear
3:15 PM 19.4 °F 5.0 °F 14.0 °F 80% 30.12 in 10.0 mi NNE 16.1 mph 21.9 mph N/A   Clear
3:35 PM 19.4 °F 5.5 °F 12.2 °F 74% 30.12 in 10.0 mi NE 15.0 mph 18.4 mph N/A   Clear
3:54 PM 19.4 °F 5.5 °F 12.2 °F 74% 30.12 in 10.0 mi NE 15.0 mph 18.4 mph N/A   Clear
4:14 PM 19.4 °F 6.0 °F 12.2 °F 74% 30.13 in 10.0 mi NE 13.8 mph 19.6 mph N/A   Clear
4:35 PM 19.4 °F 6.6 °F 12.2 °F 74% 30.13 in 10.0 mi NE 12.7 mph 19.6 mph N/A   Clear
4:54 PM 19.4 °F 7.2 °F 12.2 °F 74% 30.14 in 10.0 mi NE 11.5 mph 17.3 mph N/A   Clear
5:14 PM 19.4 °F 7.2 °F 12.2 °F 74% 30.14 in 10.0 mi NE 11.5 mph 18.4 mph N/A   Clear
5:35 PM 19.4 °F 6.6 °F 12.2 °F 74% 30.14 in 10.0 mi NE 12.7 mph 19.6 mph N/A   Clear
5:54 PM 19.4 °F 6.6 °F 12.2 °F 74% 30.14 in 10.0 mi NE 12.7 mph 18.4 mph N/A   Clear
6:14 PM 19.4 °F 6.0 °F 12.2 °F 74% 30.16 in 10.0 mi NE 13.8 mph 18.4 mph N/A   Scattered Clouds
6:35 PM 19.4 °F 8.6 °F 12.2 °F 74% 30.17 in 10.0 mi NE 9.2 mph 19.6 mph N/A   Scattered Clouds
6:54 PM 17.6 °F 4.3 °F 10.4 °F 73% 30.17 in 10.0 mi NE 12.7 mph 17.3 mph N/A   Scattered Clouds
7:14 PM 17.6 °F 3.7 °F 10.4 °F 73% 30.18 in 10.0 mi NE 13.8 mph 18.4 mph N/A   Clear
7:35 PM 17.6 °F 5.7 °F 10.4 °F 73% 30.19 in 10.0 mi NNE 10.4 mph - N/A   Clear
7:54 PM 17.6 °F 5.0 °F 10.4 °F 73% 30.19 in 10.0 mi NE 11.5 mph 18.4 mph N/A   Clear
8:14 PM 17.6 °F 4.3 °F 10.4 °F 73% 30.19 in 10.0 mi NE 12.7 mph 18.4 mph N/A   Clear
8:35 PM 17.6 °F 5.7 °F 10.4 °F 73% 30.18 in 10.0 mi NE 10.4 mph - N/A   Clear
8:54 PM 15.8 °F 1.4 °F 10.4 °F 79% 30.19 in 10.0 mi NE 13.8 mph - N/A   Clear
9:14 PM 15.8 °F 2.7 °F 10.4 °F 79% 30.20 in 10.0 mi NE 11.5 mph 16.1 mph N/A   Clear
9:34 PM 15.8 °F 2.7 °F 10.4 °F 79% 30.20 in 10.0 mi NE 11.5 mph 17.3 mph N/A   Clear
9:54 PM 15.8 °F 3.4 °F 10.4 °F 79% 30.20 in 10.0 mi NE 10.4 mph - N/A   Clear
10:14 PM 15.8 °F 2.7 °F 10.4 °F 79% 30.21 in 10.0 mi NE 11.5 mph - N/A   Clear
10:34 PM 15.8 °F 4.2 °F 10.4 °F 79% 30.21 in 10.0 mi NE 9.2 mph - N/A   Clear
10:54 PM 15.8 °F 3.4 °F 10.4 °F 79% 30.21 in 10.0 mi NE 10.4 mph - N/A   Clear
11:14 PM 15.8 °F 4.2 °F 10.4 °F 79% 30.21 in 10.0 mi NE 9.2 mph - N/A   Clear
11:34 PM 15.8 °F 5.1 °F 10.4 °F 79% 30.21 in 10.0 mi NE 8.1 mph - N/A   Clear
11:54 PM 15.8 °F 3.4 °F 10.4 °F 79% 30.21 in 10.0 mi NE 10.4 mph - N/A   Mostly Cloudy